Tracking 35275 objects as of 8-Sep-2026
HD Live streaming from Space Station
objects crossing your sky now

COSMOS 2499 DEB

Track COSMOS 2499 DEB now!
10-day predictions


NORAD ID: 55735
Int'l Code: 2014-028AX
Launch date: May 23, 2014
Source: Commonwealth of Independent States (former USSR) (CIS)
Launch site: PLESETSK MISSILE AND SPACE COMPLEX (PKMTR)

Note: This is SATELLITE DEBRIS
Your satellite tracking list
Your tracking list is empty




NASA's NSSDC Master Catalog

Two Line Element Set (TLE):
1 55735U 14028AX  24200.14513838  .00011960  00000-0  39285-1 0  9996
2 55735  82.4301   0.3385 0249347 222.3480 135.8144 12.90926405 68710
Source of the keplerian elements: AFSPC